Weather History for PASI - May, 2013

Change the Weather History Date:

Tuesday, May 14, 2013

  Actual Average Record
Temperature  
Mean Temperature 46 °F -  
Max Temperature 48 °F 53 °F 76 °F (1973)
Min Temperature 44 °F 41 °F 34 °F (1965)
Degree Days  
Heating Degree Days 19    
Moisture  
Dew Point 44 °F    
Average Humidity 93    
Maximum Humidity 100    
Minimum Humidity 86    
Precipitation  
Precipitation 0.55 in - - ()
Sea Level Pressure  
Sea Level Pressure 29.81 in    
Wind  
Wind Speed 9 mph (SSE)    
Max Wind Speed 17 mph    
Max Gust Speed 25 mph    
Visibility 7 miles    
Events Rain    
Averages and records for this station are not official NWS values.
T = Trace of Precipitation, MM = Missing Value Source: NWS Daily Summary

Daily Weather History Graph

Daily Weather History Graph

Search for Another Location

Airport or City:

Trip Planner

Search our weather history database for the weather conditions in past years. The results will help you decide how hot, cold, wet, or windy it might be!

Date:

Astronomy

May. 14, 2013 Rise Set
Actual Time 4:43 AM AKDT 9:13 PM AKDT
Civil Twilight 3:51 AM AKDT 10:05 PM AKDT
Nautical Twilight 2:26 AM AKDT 11:33 PM AKDT
Astronomical Twilight Sun does not set Sun does not set
Moon 8:34 AM AKDT (5/14) 12:23 AM AKDT (5/14)
Length of Visible Light 18h 14m
Length of Day
16h 29m
Waxing Crescent, 20% of the Moon is Illuminated
May 14
Waxing Crescent
May 17
First Quarter
May 24
Full
May 31
Last Quarter
Jun 8
New

Hourly Weather History & Observations

Time (AKDT) Temp. Windchill Dew Point Humidity Pressure Visibility Wind Dir Wind Speed Gust Speed Precip Events Conditions
12:26 AM 46.4 °F 40.7 °F 44.6 °F 93% 29.71 in 10.0 mi South 12.7 mph 25.3 mph N/A   Overcast
12:36 AM 46.4 °F 40.7 °F 42.8 °F 87% 29.71 in 10.0 mi South 12.7 mph 24.2 mph N/A   Overcast
12:53 AM 46.9 °F - 43.0 °F 86% 29.72 in 10.0 mi South 11.5 mph - N/A   Overcast
1:53 AM 46.0 °F 43.1 °F 44.1 °F 93% 29.73 in 8.0 mi South 5.8 mph - 0.01 in Rain Light Rain
2:53 AM 46.0 °F 41.9 °F 44.1 °F 93% 29.73 in 10.0 mi SSE 8.1 mph - 0.01 in Rain Light Rain
3:53 AM 46.9 °F - 43.0 °F 86% 29.73 in 6.0 mi SE 9.2 mph - 0.04 in Rain Light Rain
4:53 AM 46.0 °F 41.9 °F 43.0 °F 89% 29.75 in 6.0 mi SE 8.1 mph - 0.05 in Rain Rain
5:33 AM 46.4 °F 42.4 °F 42.8 °F 87% 29.76 in 5.0 mi SSE 8.1 mph - 0.06 in Rain Light Rain
5:45 AM 46.4 °F 42.4 °F 44.6 °F 93% 29.76 in 3.0 mi South 8.1 mph - 0.07 in Rain Light Rain
5:53 AM 45.0 °F 42.6 °F 44.1 °F 97% 29.76 in 2.5 mi South 4.6 mph - 0.08 in Rain Light Rain
6:06 AM 44.6 °F 42.2 °F 42.8 °F 93% 29.76 in 4.0 mi SE 4.6 mph - 0.01 in Rain Light Rain
6:26 AM 46.4 °F 42.4 °F 42.8 °F 87% 29.76 in 3.0 mi ESE 8.1 mph - 0.02 in Rain Light Rain
6:53 AM 45.0 °F 40.6 °F 43.0 °F 93% 29.77 in 2.5 mi SE 8.1 mph - 0.03 in Rain Light Rain
7:08 AM 44.6 °F 39.7 °F 42.8 °F 93% 29.77 in 4.0 mi ESE 9.2 mph - 0.01 in Rain Light Rain
7:47 AM 46.4 °F 42.4 °F 42.8 °F 87% 29.78 in 7.0 mi SSE 8.1 mph - 0.01 in Rain Light Rain
7:53 AM 46.0 °F 43.1 °F 43.0 °F 89% 29.78 in 7.0 mi SE 5.8 mph - 0.01 in Rain Light Rain
8:18 AM 46.4 °F 42.4 °F 44.6 °F 93% 29.78 in 5.0 mi ESE 8.1 mph - 0.00 in Rain Light Rain
8:53 AM 46.0 °F 42.5 °F 44.1 °F 93% 29.79 in 6.0 mi SE 6.9 mph - 0.01 in Rain Light Rain
9:53 AM 46.9 °F - 45.0 °F 93% 29.80 in 6.0 mi South 6.9 mph - 0.01 in Rain Light Rain
10:53 AM 46.9 °F - 46.0 °F 97% 29.82 in 4.0 mi Calm Calm - 0.06 in Rain Light Rain
11:06 AM 46.4 °F 41.5 °F 46.4 °F 100% 29.82 in 5.0 mi South 10.4 mph 17.3 mph 0.01 in Rain Light Rain
11:18 AM 46.4 °F 40.4 °F 46.4 °F 100% 29.82 in 4.0 mi South 13.8 mph 19.6 mph 0.02 in Rain Light Rain
11:53 AM 48.0 °F - 46.0 °F 93% 29.83 in 5.0 mi South 11.5 mph - 0.02 in Rain Light Rain
12:42 PM 48.2 °F - 46.4 °F 93% 29.83 in 6.0 mi South 15.0 mph - 0.00 in Rain Light Rain
12:53 PM 48.0 °F - 46.0 °F 93% 29.84 in 6.0 mi South 10.4 mph - 0.00 in Rain Light Rain
1:53 PM 48.0 °F - 46.0 °F 93% 29.85 in 8.0 mi South 10.4 mph - 0.03 in Rain Light Rain
2:29 PM 48.2 °F - 46.4 °F 93% 29.85 in 6.0 mi South 12.7 mph - 0.01 in Rain Light Rain
2:53 PM 48.0 °F - 46.0 °F 93% 29.85 in 4.0 mi SSW 12.7 mph - 0.03 in Rain Light Rain
3:09 PM 46.4 °F 39.5 °F 46.4 °F 100% 29.86 in 3.0 mi SSW 17.3 mph 23.0 mph 0.01 in Rain Light Rain
3:53 PM 46.9 °F - 46.0 °F 97% 29.86 in 9.0 mi SSW 9.2 mph - 0.02 in Rain Light Rain
4:53 PM 46.9 °F - 45.0 °F 93% 29.86 in 10.0 mi South 13.8 mph - 0.02 in Rain Light Rain
5:18 PM 46.4 °F 40.4 °F 44.6 °F 93% 29.86 in 10.0 mi South 13.8 mph 24.2 mph 0.01 in Rain Light Rain
5:53 PM 46.9 °F - 45.0 °F 93% 29.87 in 10.0 mi SSW 16.1 mph - 0.02 in Rain Light Rain
6:53 PM 46.9 °F - 44.1 °F 90% 29.87 in 10.0 mi South 9.2 mph - 0.00 in Rain Light Rain
7:20 PM 46.4 °F 43.5 °F 44.6 °F 93% 29.87 in 10.0 mi SSE 5.8 mph - 0.01 in Rain Light Rain
7:53 PM 46.9 °F - 44.1 °F 90% 29.88 in 10.0 mi South 9.2 mph - 0.02 in Rain Light Rain
8:53 PM 46.0 °F 41.9 °F 44.1 °F 93% 29.88 in 10.0 mi South 8.1 mph - 0.01 in Rain Light Rain
9:22 PM 46.4 °F 42.9 °F 44.6 °F 93% 29.89 in 10.0 mi South 6.9 mph - 0.01 in Rain Light Rain
9:53 PM 46.0 °F 44.8 °F 44.1 °F 93% 29.89 in 10.0 mi ESE 3.5 mph - 0.01 in Rain Light Rain
10:50 PM 46.4 °F 44.3 °F 44.6 °F 93% 29.89 in 10.0 mi East 4.6 mph - 0.01 in Rain Light Rain
10:53 PM 46.0 °F 43.1 °F 45.0 °F 96% 29.89 in 10.0 mi East 5.8 mph - 0.01 in Rain Light Rain
11:44 PM 44.6 °F 41.4 °F 44.6 °F 100% 29.89 in 8.0 mi ESE 5.8 mph - 0.04 in Rain Light Rain
11:53 PM 45.0 °F 42.6 °F 44.1 °F 97% 29.89 in 9.0 mi ESE 4.6 mph - 0.05 in Rain Light Rain